Year,Month,Day,Hour,Minute,Value (Times are PST for temperature in C)
2015,08,22,00,00,14.60
2015,08,22,00,01,14.60
2015,08,22,00,02,14.50
2015,08,22,00,03,14.50
2015,08,22,00,04,14.50
2015,08,22,00,05,14.50
2015,08,22,00,06,14.50
2015,08,22,00,07,14.40
2015,08,22,00,08,14.40
2015,08,22,00,09,14.40
2015,08,22,00,10,14.40
2015,08,22,00,11,14.30
2015,08,22,00,12,14.30
2015,08,22,00,13,14.30
2015,08,22,00,14,14.30
2015,08,22,00,15,14.20
2015,08,22,00,16,14.20
2015,08,22,00,17,14.20
2015,08,22,00,18,14.20
2015,08,22,00,19,14.20
2015,08,22,00,20,14.20
2015,08,22,00,21,14.20
2015,08,22,00,22,14.20
2015,08,22,00,23,14.10
2015,08,22,00,24,14.10
2015,08,22,00,25,14.10
2015,08,22,00,26,14.10
2015,08,22,00,27,14.10
2015,08,22,00,28,14.10
2015,08,22,00,29,14.00
2015,08,22,00,30,14.00
2015,08,22,00,31,14.00
2015,08,22,00,32,14.00
2015,08,22,00,33,14.00
2015,08,22,00,34,14.00
2015,08,22,00,35,13.90
2015,08,22,00,36,13.90
2015,08,22,00,37,13.90
2015,08,22,00,38,13.90
2015,08,22,00,39,13.90
2015,08,22,00,40,13.90
2015,08,22,00,41,13.80
2015,08,22,00,42,13.80
2015,08,22,00,43,13.80
2015,08,22,00,44,13.80
2015,08,22,00,45,13.80
2015,08,22,00,46,13.80
2015,08,22,00,47,13.80
2015,08,22,00,48,13.70
2015,08,22,00,49,13.70
2015,08,22,00,50,13.70
2015,08,22,00,51,13.70
2015,08,22,00,52,13.70
2015,08,22,00,53,13.70
2015,08,22,00,54,13.60
2015,08,22,00,55,13.60
2015,08,22,00,56,13.60
2015,08,22,00,57,13.60
2015,08,22,00,58,13.50
2015,08,22,00,59,13.50
2015,08,22,01,00,13.50
2015,08,22,01,01,13.50
2015,08,22,01,02,13.50
2015,08,22,01,03,13.50
2015,08,22,01,04,13.40
2015,08,22,01,05,13.40
2015,08,22,01,06,13.40
2015,08,22,01,07,13.40
2015,08,22,01,08,13.40
2015,08,22,01,09,13.40
2015,08,22,01,10,13.40
2015,08,22,01,11,13.30
2015,08,22,01,12,13.30
2015,08,22,01,13,13.30
2015,08,22,01,14,13.30
2015,08,22,01,15,13.30
2015,08,22,01,16,13.30
2015,08,22,01,17,13.30
2015,08,22,01,18,13.30
2015,08,22,01,19,13.30
2015,08,22,01,20,13.30
2015,08,22,01,21,13.20
2015,08,22,01,22,13.20
2015,08,22,01,23,13.20
2015,08,22,01,24,13.20
2015,08,22,01,25,13.20
2015,08,22,01,26,13.20
2015,08,22,01,27,13.20
2015,08,22,01,28,13.20
2015,08,22,01,29,13.20
2015,08,22,01,30,13.20
2015,08,22,01,31,13.20
2015,08,22,01,32,13.20
2015,08,22,01,33,13.20
2015,08,22,01,34,13.20
2015,08,22,01,35,13.20
2015,08,22,01,36,13.10
2015,08,22,01,37,13.10
2015,08,22,01,38,13.10
2015,08,22,01,39,13.10
2015,08,22,01,40,13.10
2015,08,22,01,41,13.10
2015,08,22,01,42,13.10
2015,08,22,01,43,13.00
2015,08,22,01,44,13.00
2015,08,22,01,45,13.00
2015,08,22,01,46,13.00
2015,08,22,01,47,13.00
2015,08,22,01,48,13.00
2015,08,22,01,49,13.00
2015,08,22,01,50,13.00
2015,08,22,01,51,12.90
2015,08,22,01,52,12.90
2015,08,22,01,53,12.90
2015,08,22,01,54,12.90
2015,08,22,01,55,12.90
2015,08,22,01,56,12.90
2015,08,22,01,57,12.90
2015,08,22,01,58,12.90
2015,08,22,01,59,12.90
2015,08,22,02,00,12.90
2015,08,22,02,01,12.80
2015,08,22,02,02,12.80
2015,08,22,02,03,12.80
2015,08,22,02,04,12.80
2015,08,22,02,05,12.80
2015,08,22,02,06,12.80
2015,08,22,02,07,12.80
2015,08,22,02,08,12.80
2015,08,22,02,09,12.80
2015,08,22,02,10,12.80
2015,08,22,02,11,12.80
2015,08,22,02,12,12.80
2015,08,22,02,13,12.80
2015,08,22,02,14,12.80
2015,08,22,02,15,12.80
2015,08,22,02,16,12.80
2015,08,22,02,17,12.70
2015,08,22,02,18,12.70
2015,08,22,02,19,12.70
2015,08,22,02,20,12.70
2015,08,22,02,21,12.70
2015,08,22,02,22,12.70
2015,08,22,02,23,12.60
2015,08,22,02,24,12.60
2015,08,22,02,25,12.60
2015,08,22,02,26,12.60
2015,08,22,02,27,12.60
2015,08,22,02,28,12.60
2015,08,22,02,29,12.60
2015,08,22,02,30,12.60
2015,08,22,02,31,12.60
2015,08,22,02,32,12.60
2015,08,22,02,33,12.60
2015,08,22,02,34,12.50
2015,08,22,02,35,12.50
2015,08,22,02,36,12.50
2015,08,22,02,37,12.50
2015,08,22,02,38,12.50
2015,08,22,02,39,12.50
2015,08,22,02,40,12.50
2015,08,22,02,41,12.50
2015,08,22,02,42,12.50
2015,08,22,02,43,12.50
2015,08,22,02,44,12.50
2015,08,22,02,45,12.60
2015,08,22,02,46,12.60
2015,08,22,02,47,12.60
2015,08,22,02,48,12.60
2015,08,22,02,49,12.60
2015,08,22,02,50,12.60
2015,08,22,02,51,12.60
2015,08,22,02,52,12.60
2015,08,22,02,53,12.60
2015,08,22,02,54,12.60
2015,08,22,02,55,12.60
2015,08,22,02,56,12.60
2015,08,22,02,57,12.60
2015,08,22,02,58,12.60
2015,08,22,02,59,12.60
2015,08,22,03,00,12.60
2015,08,22,03,01,12.60
2015,08,22,03,02,12.60
2015,08,22,03,03,12.60
2015,08,22,03,04,12.60
2015,08,22,03,05,12.60
2015,08,22,03,06,12.50
2015,08,22,03,07,12.50
2015,08,22,03,08,12.50
2015,08,22,03,09,12.50
2015,08,22,03,10,12.40
2015,08,22,03,11,12.40
2015,08,22,03,12,12.30
2015,08,22,03,13,12.30
2015,08,22,03,14,12.30
2015,08,22,03,15,12.30
2015,08,22,03,16,12.30
2015,08,22,03,17,12.30
2015,08,22,03,18,12.30
2015,08,22,03,19,12.20
2015,08,22,03,20,12.20
2015,08,22,03,21,12.20
2015,08,22,03,22,12.20
2015,08,22,03,23,12.20
2015,08,22,03,24,12.20
2015,08,22,03,25,12.20
2015,08,22,03,26,12.20
2015,08,22,03,27,12.10
2015,08,22,03,28,12.10
2015,08,22,03,29,12.10
2015,08,22,03,30,12.10
2015,08,22,03,31,12.10
2015,08,22,03,32,12.10
2015,08,22,03,33,12.00
2015,08,22,03,34,12.00
2015,08,22,03,35,12.00
2015,08,22,03,36,12.00
2015,08,22,03,37,12.00
2015,08,22,03,38,12.00
2015,08,22,03,39,11.90
2015,08,22,03,40,11.90
2015,08,22,03,41,11.90
2015,08,22,03,42,11.90
2015,08,22,03,43,11.90
2015,08,22,03,44,11.90
2015,08,22,03,45,11.90
2015,08,22,03,46,11.80
2015,08,22,03,47,11.80
2015,08,22,03,48,11.80
2015,08,22,03,49,11.80
2015,08,22,03,50,11.80
2015,08,22,03,51,11.80
2015,08,22,03,52,11.80
2015,08,22,03,53,11.80
2015,08,22,03,54,11.80
2015,08,22,03,55,11.80
2015,08,22,03,56,11.80
2015,08,22,03,57,11.70
2015,08,22,03,58,11.70
2015,08,22,03,59,11.70
2015,08,22,04,00,11.80
2015,08,22,04,01,11.80
2015,08,22,04,02,11.80
2015,08,22,04,03,11.80
2015,08,22,04,04,11.80
2015,08,22,04,05,11.80
2015,08,22,04,06,11.80
2015,08,22,04,07,11.70
2015,08,22,04,08,11.70
2015,08,22,04,09,11.70
2015,08,22,04,10,11.80
2015,08,22,04,11,11.80
2015,08,22,04,12,11.80
2015,08,22,04,13,11.80
2015,08,22,04,14,11.80
2015,08,22,04,15,11.70
2015,08,22,04,16,11.70
2015,08,22,04,17,11.70
2015,08,22,04,18,11.70
2015,08,22,04,19,11.70
2015,08,22,04,20,11.70
2015,08,22,04,21,11.80
2015,08,22,04,22,11.80
2015,08,22,04,23,11.80
2015,08,22,04,24,11.80
2015,08,22,04,25,11.80
2015,08,22,04,26,11.80
2015,08,22,04,27,11.80
2015,08,22,04,28,11.90
2015,08,22,04,29,11.90
2015,08,22,04,30,11.90
2015,08,22,04,31,11.90
2015,08,22,04,32,11.90
2015,08,22,04,33,11.80
2015,08,22,04,34,11.80
2015,08,22,04,35,11.80
2015,08,22,04,36,11.80
2015,08,22,04,37,11.80
2015,08,22,04,38,11.80
2015,08,22,04,39,11.80
2015,08,22,04,40,11.80
2015,08,22,04,41,11.80
2015,08,22,04,42,11.70
2015,08,22,04,43,11.70
2015,08,22,04,44,11.70
2015,08,22,04,45,11.70
2015,08,22,04,46,11.60
2015,08,22,04,47,11.60
2015,08,22,04,48,11.60
2015,08,22,04,49,11.60
2015,08,22,04,50,11.60
2015,08,22,04,51,11.60
2015,08,22,04,52,11.60
2015,08,22,04,53,11.60
2015,08,22,04,54,11.60
2015,08,22,04,55,11.60
2015,08,22,04,56,11.60
2015,08,22,04,57,11.60
2015,08,22,04,58,11.60
2015,08,22,04,59,11.60
2015,08,22,05,00,11.60
2015,08,22,05,01,11.60
2015,08,22,05,02,11.40
2015,08,22,05,03,11.40
2015,08,22,05,04,11.40
2015,08,22,05,05,11.40
2015,08,22,05,06,11.40
2015,08,22,05,07,11.40
2015,08,22,05,08,11.40
2015,08,22,05,09,11.40
2015,08,22,05,10,11.40
2015,08,22,05,11,11.40
2015,08,22,05,12,11.40
2015,08,22,05,13,11.40
2015,08,22,05,14,11.40
2015,08,22,05,15,11.30
2015,08,22,05,16,11.30
2015,08,22,05,17,11.30
2015,08,22,05,18,11.30
2015,08,22,05,19,11.30
2015,08,22,05,20,11.30
2015,08,22,05,21,11.30
2015,08,22,05,22,11.30
2015,08,22,05,23,11.30
2015,08,22,05,24,11.30
2015,08,22,05,25,11.30
2015,08,22,05,26,11.30
2015,08,22,05,27,11.30
2015,08,22,05,28,11.30
2015,08,22,05,29,11.30
2015,08,22,05,30,11.30
2015,08,22,05,31,11.30
2015,08,22,05,32,11.30
2015,08,22,05,33,11.30
2015,08,22,05,34,11.30
2015,08,22,05,35,11.30
2015,08,22,05,36,11.30
2015,08,22,05,37,11.30
2015,08,22,05,38,11.20
2015,08,22,05,39,11.20
2015,08,22,05,40,11.20
2015,08,22,05,41,11.20
2015,08,22,05,42,11.20
2015,08,22,05,43,11.20
2015,08,22,05,44,11.20
2015,08,22,05,45,11.10
2015,08,22,05,46,11.10
2015,08,22,05,47,11.10
2015,08,22,05,48,11.10
2015,08,22,05,49,11.10
2015,08,22,05,50,11.10
2015,08,22,05,51,11.10
2015,08,22,05,52,11.10
2015,08,22,05,53,11.10
2015,08,22,05,54,11.10
2015,08,22,05,55,11.10
2015,08,22,05,56,11.10
2015,08,22,05,57,11.10
2015,08,22,05,58,11.10
2015,08,22,05,59,11.10
2015,08,22,06,00,11.10
2015,08,22,06,01,11.10
2015,08,22,06,02,11.10
2015,08,22,06,03,11.10
2015,08,22,06,04,11.10
2015,08,22,06,05,11.10
2015,08,22,06,06,11.10
2015,08,22,06,07,11.10
2015,08,22,06,08,11.10
2015,08,22,06,09,11.10
2015,08,22,06,10,11.10
2015,08,22,06,11,11.10
2015,08,22,06,12,11.10
2015,08,22,06,13,11.10
2015,08,22,06,14,11.10
2015,08,22,06,15,11.10
2015,08,22,06,16,11.10
2015,08,22,06,17,11.00
2015,08,22,06,18,10.90
2015,08,22,06,19,10.90
2015,08,22,06,20,10.90
2015,08,22,06,21,10.90
2015,08,22,06,22,10.90
2015,08,22,06,23,10.90
2015,08,22,06,24,10.90
2015,08,22,06,25,10.90
2015,08,22,06,26,10.90
2015,08,22,06,27,10.90
2015,08,22,06,28,10.90
2015,08,22,06,29,10.90
2015,08,22,06,30,10.90
2015,08,22,06,31,10.90
2015,08,22,06,32,10.90
2015,08,22,06,33,10.90
2015,08,22,06,34,10.90
2015,08,22,06,35,10.90
2015,08,22,06,36,10.90
2015,08,22,06,37,10.90
2015,08,22,06,38,10.90
2015,08,22,06,39,10.90
2015,08,22,06,40,10.90
2015,08,22,06,41,10.90
2015,08,22,06,42,10.90
2015,08,22,06,43,10.90
2015,08,22,06,44,10.90
2015,08,22,06,45,11.00
2015,08,22,06,46,11.10
2015,08,22,06,47,11.10
2015,08,22,06,48,11.10
2015,08,22,06,49,11.10
2015,08,22,06,50,11.10
2015,08,22,06,51,11.10
2015,08,22,06,52,11.20
2015,08,22,06,53,11.20
2015,08,22,06,54,11.20
2015,08,22,06,55,11.20
2015,08,22,06,56,11.30
2015,08,22,06,57,11.30
2015,08,22,06,58,11.40
2015,08,22,06,59,11.40
2015,08,22,07,00,11.50
2015,08,22,07,01,11.60
2015,08,22,07,02,11.60
2015,08,22,07,03,11.70
2015,08,22,07,04,11.70
2015,08,22,07,05,11.80
2015,08,22,07,06,11.80
2015,08,22,07,07,11.80
2015,08,22,07,08,11.90
2015,08,22,07,09,11.90
2015,08,22,07,10,12.00
2015,08,22,07,11,12.10
2015,08,22,07,12,12.10
2015,08,22,07,13,12.20
2015,08,22,07,14,12.30
2015,08,22,07,15,12.30
2015,08,22,07,16,12.30
2015,08,22,07,17,12.40
2015,08,22,07,18,12.40
2015,08,22,07,19,12.50
2015,08,22,07,20,12.60
2015,08,22,07,21,12.70
2015,08,22,07,22,12.80
2015,08,22,07,23,12.80
2015,08,22,07,24,12.90
2015,08,22,07,25,12.90
2015,08,22,07,26,13.00
2015,08,22,07,27,13.00
2015,08,22,07,28,13.10
2015,08,22,07,29,13.20
2015,08,22,07,30,13.20
2015,08,22,07,31,13.30
2015,08,22,07,32,13.30
2015,08,22,07,33,13.40
2015,08,22,07,34,13.50
2015,08,22,07,35,13.60
2015,08,22,07,36,13.60
2015,08,22,07,37,13.70
2015,08,22,07,38,13.70
2015,08,22,07,39,13.80
2015,08,22,07,40,13.90
2015,08,22,07,41,14.00
2015,08,22,07,42,14.10
2015,08,22,07,43,14.20
2015,08,22,07,44,14.20
2015,08,22,07,45,14.30
2015,08,22,07,46,14.40
2015,08,22,07,47,14.50
2015,08,22,07,48,14.50
2015,08,22,07,49,14.60
2015,08,22,07,50,14.70
2015,08,22,07,51,14.80
2015,08,22,07,52,15.00
2015,08,22,07,53,15.00
2015,08,22,07,54,15.20
2015,08,22,07,55,15.30
2015,08,22,07,56,15.30
2015,08,22,07,57,15.40
2015,08,22,07,58,15.50
2015,08,22,07,59,15.60
2015,08,22,08,00,15.60
2015,08,22,08,01,15.70
2015,08,22,08,02,15.80
2015,08,22,08,03,15.80
2015,08,22,08,04,15.90
2015,08,22,08,05,16.00
2015,08,22,08,06,16.10
2015,08,22,08,07,16.20
2015,08,22,08,08,16.40
2015,08,22,08,09,16.40
2015,08,22,08,10,16.50
2015,08,22,08,11,16.70
2015,08,22,08,12,16.70
2015,08,22,08,13,16.80
2015,08,22,08,14,16.90
2015,08,22,08,15,17.00
2015,08,22,08,16,17.10
2015,08,22,08,17,17.20
2015,08,22,08,18,17.30
2015,08,22,08,19,17.30
2015,08,22,08,20,17.40
2015,08,22,08,21,17.40
2015,08,22,08,22,17.50
2015,08,22,08,23,17.60
2015,08,22,08,24,17.70
2015,08,22,08,25,17.70
2015,08,22,08,26,17.80
2015,08,22,08,27,17.90
2015,08,22,08,28,17.90
2015,08,22,08,29,18.00
2015,08,22,08,30,18.10
2015,08,22,08,31,18.20
2015,08,22,08,32,18.20
2015,08,22,08,33,18.30
2015,08,22,08,34,18.40
2015,08,22,08,35,18.40
2015,08,22,08,36,18.50
2015,08,22,08,37,18.50
2015,08,22,08,38,18.60
2015,08,22,08,39,18.60
2015,08,22,08,40,18.60
2015,08,22,08,41,18.60
2015,08,22,08,42,18.70
2015,08,22,08,43,18.70
2015,08,22,08,44,18.70
2015,08,22,08,45,18.80
2015,08,22,08,46,18.80
2015,08,22,08,47,18.80
2015,08,22,08,48,18.90
2015,08,22,08,49,18.90
2015,08,22,08,50,18.80
2015,08,22,08,51,18.80
2015,08,22,08,52,18.80
2015,08,22,08,53,18.90
2015,08,22,08,54,18.90
2015,08,22,08,55,18.90
2015,08,22,08,56,18.90
2015,08,22,08,57,19.00
2015,08,22,08,58,19.10
2015,08,22,08,59,19.10
2015,08,22,09,00,19.10
2015,08,22,09,01,19.10
2015,08,22,09,02,19.10
2015,08,22,09,03,19.10
2015,08,22,09,04,19.10
2015,08,22,09,05,19.10
2015,08,22,09,06,19.10
2015,08,22,09,07,19.10
2015,08,22,09,08,19.10
2015,08,22,09,09,19.10
2015,08,22,09,10,19.20
2015,08,22,09,11,19.20
2015,08,22,09,12,19.30
2015,08,22,09,13,19.30
2015,08,22,09,14,19.40
2015,08,22,09,15,19.40
2015,08,22,09,16,19.40
2015,08,22,09,17,19.40
2015,08,22,09,18,19.40
2015,08,22,09,19,19.40
2015,08,22,09,20,19.40
2015,08,22,09,21,19.40
2015,08,22,09,22,19.40
2015,08,22,09,23,19.40
2015,08,22,09,24,19.50
2015,08,22,09,25,19.50
2015,08,22,09,26,19.50
2015,08,22,09,27,19.50
2015,08,22,09,28,19.50
2015,08,22,09,29,19.60
2015,08,22,09,30,19.50
2015,08,22,09,31,19.50
2015,08,22,09,32,19.60
2015,08,22,09,33,19.60
2015,08,22,09,34,19.60
2015,08,22,09,35,19.60
2015,08,22,09,36,19.60
2015,08,22,09,37,19.60
2015,08,22,09,38,19.60
2015,08,22,09,39,19.70
2015,08,22,09,40,19.70
2015,08,22,09,41,19.70
2015,08,22,09,42,19.80
2015,08,22,09,43,19.80
2015,08,22,09,44,19.80
2015,08,22,09,45,19.80
2015,08,22,09,46,19.90
2015,08,22,09,47,19.90
2015,08,22,09,48,19.90
2015,08,22,09,49,20.10
2015,08,22,09,50,20.10
2015,08,22,09,51,20.20
2015,08,22,09,52,20.20
2015,08,22,09,53,20.20
2015,08,22,09,54,20.20
2015,08,22,09,55,20.30
2015,08,22,09,56,20.30
2015,08,22,09,57,20.30
2015,08,22,09,58,20.30
2015,08,22,09,59,20.30
2015,08,22,10,00,20.30
2015,08,22,10,01,20.30
2015,08,22,10,02,20.30
2015,08,22,10,03,20.40
2015,08,22,10,04,20.40
2015,08,22,10,05,20.40
2015,08,22,10,06,20.40
2015,08,22,10,07,20.50
2015,08,22,10,08,20.50
2015,08,22,10,09,20.50
2015,08,22,10,10,20.60
2015,08,22,10,11,20.60
2015,08,22,10,12,20.50
2015,08,22,10,13,20.50
2015,08,22,10,14,20.60
2015,08,22,10,15,20.60
2015,08,22,10,16,20.60
2015,08,22,10,17,20.50
2015,08,22,10,18,20.50
2015,08,22,10,19,20.50
2015,08,22,10,20,20.60
2015,08,22,10,21,20.70
2015,08,22,10,22,20.70
2015,08,22,10,23,20.80
2015,08,22,10,24,20.80
2015,08,22,10,25,20.90
2015,08,22,10,26,20.90
2015,08,22,10,27,21.00
2015,08,22,10,28,21.00
2015,08,22,10,29,21.00
2015,08,22,10,30,21.00
2015,08,22,10,31,21.10
2015,08,22,10,32,21.10
2015,08,22,10,33,21.10
2015,08,22,10,34,21.10
2015,08,22,10,35,21.10
2015,08,22,10,36,21.10
2015,08,22,10,37,21.10
2015,08,22,10,38,21.00
2015,08,22,10,39,21.00
2015,08,22,10,40,21.00
2015,08,22,10,41,21.00
2015,08,22,10,42,21.10
2015,08,22,10,43,21.10
2015,08,22,10,44,21.20
2015,08,22,10,45,21.30
2015,08,22,10,46,21.30
2015,08,22,10,47,21.30
2015,08,22,10,48,21.30
2015,08,22,10,49,21.30
2015,08,22,10,50,21.40
2015,08,22,10,51,21.40
2015,08,22,10,52,21.50
2015,08,22,10,53,21.60
2015,08,22,10,54,21.60
2015,08,22,10,55,21.70
2015,08,22,10,56,21.80
2015,08,22,10,57,21.80
2015,08,22,10,58,21.80
2015,08,22,10,59,21.90
2015,08,22,11,00,21.90
2015,08,22,11,01,21.90
2015,08,22,11,02,21.80
2015,08,22,11,03,21.70
2015,08,22,11,04,21.70
2015,08,22,11,05,21.60
2015,08,22,11,06,21.60
2015,08,22,11,07,21.50
2015,08,22,11,08,21.40
2015,08,22,11,09,21.40
2015,08,22,11,10,21.40
2015,08,22,11,11,21.60
2015,08,22,11,12,21.60
2015,08,22,11,13,21.60
2015,08,22,11,14,21.60
2015,08,22,11,15,21.60
2015,08,22,11,16,21.60
2015,08,22,11,17,21.60
2015,08,22,11,18,21.60
2015,08,22,11,19,21.60
2015,08,22,11,20,21.60
2015,08,22,11,21,21.60
2015,08,22,11,22,21.60
2015,08,22,11,23,21.70
2015,08,22,11,24,21.70
2015,08,22,11,25,21.70
2015,08,22,11,26,21.70
2015,08,22,11,27,21.70
2015,08,22,11,28,21.70
2015,08,22,11,29,21.70
2015,08,22,11,30,21.70
2015,08,22,11,31,21.70
2015,08,22,11,32,21.80
2015,08,22,11,33,21.80
2015,08,22,11,34,21.70
2015,08,22,11,35,21.70
2015,08,22,11,36,21.80
2015,08,22,11,37,22.00
2015,08,22,11,38,22.00
2015,08,22,11,39,22.10
2015,08,22,11,40,22.20
2015,08,22,11,41,22.10
2015,08,22,11,42,22.20
2015,08,22,11,43,22.20
2015,08,22,11,44,22.30
2015,08,22,11,45,22.30
2015,08,22,11,46,22.40
2015,08,22,11,47,22.50
2015,08,22,11,48,22.50
2015,08,22,11,49,22.60
2015,08,22,11,50,22.70
2015,08,22,11,51,22.80
2015,08,22,11,52,22.80
2015,08,22,11,53,22.80
2015,08,22,11,54,22.80
2015,08,22,11,55,22.80
2015,08,22,11,56,22.80
2015,08,22,11,57,22.80
2015,08,22,11,58,22.90
2015,08,22,11,59,22.90
2015,08,22,12,00,22.90
2015,08,22,12,01,22.90
2015,08,22,12,02,22.90
2015,08,22,12,03,22.90
2015,08,22,12,04,22.90
2015,08,22,12,05,22.90
2015,08,22,12,06,22.90
2015,08,22,12,07,22.90
2015,08,22,12,08,22.90
2015,08,22,12,09,22.90
2015,08,22,12,10,22.90
2015,08,22,12,11,22.90
2015,08,22,12,12,22.90
2015,08,22,12,13,22.90
2015,08,22,12,14,22.90
2015,08,22,12,15,23.10
2015,08,22,12,16,23.10
2015,08,22,12,17,23.20
2015,08,22,12,18,23.20
2015,08,22,12,19,23.20
2015,08,22,12,20,23.20
2015,08,22,12,21,23.20
2015,08,22,12,22,23.20
2015,08,22,12,23,23.30
2015,08,22,12,24,23.30
2015,08,22,12,25,23.30
2015,08,22,12,26,23.20
2015,08,22,12,27,23.20
2015,08,22,12,28,23.10
2015,08,22,12,29,23.10
2015,08,22,12,30,23.20
2015,08,22,12,31,23.20
2015,08,22,12,32,23.20
2015,08,22,12,33,23.20
2015,08,22,12,34,23.30
2015,08,22,12,35,23.30
2015,08,22,12,36,23.30
2015,08,22,12,37,23.30
2015,08,22,12,38,23.30
2015,08,22,12,39,23.40
2015,08,22,12,40,23.50
2015,08,22,12,41,23.60
2015,08,22,12,42,23.70
2015,08,22,12,43,23.70
2015,08,22,12,44,23.60
2015,08,22,12,45,23.60
2015,08,22,12,46,23.60
2015,08,22,12,47,23.70
2015,08,22,12,48,23.70
2015,08,22,12,49,23.70
2015,08,22,12,50,23.60
2015,08,22,12,51,23.60
2015,08,22,12,52,23.60
2015,08,22,12,53,23.50
2015,08,22,12,54,23.40
2015,08,22,12,55,23.40
2015,08,22,12,56,23.50
2015,08,22,12,57,23.60
2015,08,22,12,58,23.60
2015,08,22,12,59,23.60
2015,08,22,13,00,23.70
2015,08,22,13,01,23.70
2015,08,22,13,02,23.70
2015,08,22,13,03,23.80
2015,08,22,13,04,23.90
2015,08,22,13,05,24.00
2015,08,22,13,06,24.10
2015,08,22,13,07,24.10
2015,08,22,13,08,24.10
2015,08,22,13,09,24.10
2015,08,22,13,10,24.10
2015,08,22,13,11,24.20
2015,08,22,13,12,24.20
2015,08,22,13,13,24.10
2015,08,22,13,14,24.10
2015,08,22,13,15,24.10
2015,08,22,13,16,24.00
2015,08,22,13,17,23.80
2015,08,22,13,18,23.70
2015,08,22,13,19,23.70
2015,08,22,13,20,23.70
2015,08,22,13,21,23.80
2015,08,22,13,22,23.90
2015,08,22,13,23,23.90
2015,08,22,13,24,23.80
2015,08,22,13,25,23.70
2015,08,22,13,26,23.70
2015,08,22,13,27,23.80
2015,08,22,13,28,23.80
2015,08,22,13,29,23.80
2015,08,22,13,30,23.90
2015,08,22,13,31,23.90
2015,08,22,13,32,23.90
2015,08,22,13,33,23.90
2015,08,22,13,34,23.90
2015,08,22,13,35,23.90
2015,08,22,13,36,23.80
2015,08,22,13,37,23.80
2015,08,22,13,38,23.80
2015,08,22,13,39,23.70
2015,08,22,13,40,23.60
2015,08,22,13,41,23.60
2015,08,22,13,42,23.40
2015,08,22,13,43,23.50
2015,08,22,13,44,23.60
2015,08,22,13,45,23.60
2015,08,22,13,46,23.60
2015,08,22,13,47,23.60
2015,08,22,13,48,23.60
2015,08,22,13,49,23.60
2015,08,22,13,50,23.60
2015,08,22,13,51,23.50
2015,08,22,13,52,23.40
2015,08,22,13,53,23.40
2015,08,22,13,54,23.40
2015,08,22,13,55,23.30
2015,08,22,13,56,23.30
2015,08,22,13,57,23.30
2015,08,22,13,58,23.40
2015,08,22,13,59,23.40
2015,08,22,14,00,23.50
2015,08,22,14,01,23.60
2015,08,22,14,02,23.60
2015,08,22,14,03,23.60
2015,08,22,14,04,23.60
2015,08,22,14,05,23.60
2015,08,22,14,06,23.60
2015,08,22,14,07,23.70
2015,08,22,14,08,23.70
2015,08,22,14,09,23.70
2015,08,22,14,10,23.70
2015,08,22,14,11,23.70
2015,08,22,14,12,23.70
2015,08,22,14,13,23.70
2015,08,22,14,14,23.70
2015,08,22,14,15,23.70
2015,08,22,14,16,23.70
2015,08,22,14,17,23.70
2015,08,22,14,18,23.80
2015,08,22,14,19,23.80
2015,08,22,14,20,23.90
2015,08,22,14,21,23.90
2015,08,22,14,22,23.90
2015,08,22,14,23,23.90
2015,08,22,14,24,23.90
2015,08,22,14,25,23.90
2015,08,22,14,26,23.80
2015,08,22,14,27,23.70
2015,08,22,14,28,23.70
2015,08,22,14,29,23.70
2015,08,22,14,30,23.70
2015,08,22,14,31,23.70
2015,08,22,14,32,23.70
2015,08,22,14,33,23.80
2015,08,22,14,34,23.80
2015,08,22,14,35,23.90
2015,08,22,14,36,24.00
2015,08,22,14,37,24.10
2015,08,22,14,38,24.10
2015,08,22,14,39,24.00
2015,08,22,14,40,23.90
2015,08,22,14,41,23.70
2015,08,22,14,42,23.60
2015,08,22,14,43,23.50
2015,08,22,14,44,23.30
2015,08,22,14,45,23.30
2015,08,22,14,46,23.30
2015,08,22,14,47,23.30
2015,08,22,14,48,23.20
2015,08,22,14,49,23.20
2015,08,22,14,50,23.20
2015,08,22,14,51,23.10
2015,08,22,14,52,23.10
2015,08,22,14,53,23.00
2015,08,22,14,54,22.90
2015,08,22,14,55,22.90
2015,08,22,14,56,22.90
2015,08,22,14,57,22.80
2015,08,22,14,58,22.80
2015,08,22,14,59,22.80
2015,08,22,15,00,22.70
2015,08,22,15,01,22.70
2015,08,22,15,02,22.70
2015,08,22,15,03,22.70
2015,08,22,15,04,22.60
2015,08,22,15,05,22.60
2015,08,22,15,06,22.50
2015,08,22,15,07,22.60
2015,08,22,15,08,22.60
2015,08,22,15,09,22.60
2015,08,22,15,10,22.60
2015,08,22,15,11,22.60
2015,08,22,15,12,22.60
2015,08,22,15,13,22.70
2015,08,22,15,14,22.70
2015,08,22,15,15,22.80
2015,08,22,15,16,22.90
2015,08,22,15,17,22.90
2015,08,22,15,18,23.00
2015,08,22,15,19,23.10
2015,08,22,15,20,23.10
2015,08,22,15,21,23.10
2015,08,22,15,22,23.00
2015,08,22,15,23,22.90
2015,08,22,15,24,22.90
2015,08,22,15,25,22.90
2015,08,22,15,26,22.90
2015,08,22,15,27,22.90
2015,08,22,15,28,22.90
2015,08,22,15,29,22.80
2015,08,22,15,30,22.80
2015,08,22,15,31,22.70
2015,08,22,15,32,22.70
2015,08,22,15,33,22.60
2015,08,22,15,34,22.60
2015,08,22,15,35,22.60
2015,08,22,15,36,22.60
2015,08,22,15,37,22.60
2015,08,22,15,38,22.60
2015,08,22,15,39,22.60
2015,08,22,15,40,22.60
2015,08,22,15,41,22.70
2015,08,22,15,42,22.70
2015,08,22,15,43,22.70
2015,08,22,15,44,22.80
2015,08,22,15,45,22.70
2015,08,22,15,46,22.70
2015,08,22,15,47,22.60
2015,08,22,15,48,22.70
2015,08,22,15,49,22.70
2015,08,22,15,50,22.60
2015,08,22,15,51,22.60
2015,08,22,15,52,22.60
2015,08,22,15,53,22.60
2015,08,22,15,54,22.70
2015,08,22,15,55,22.70
2015,08,22,15,56,22.80
2015,08,22,15,57,22.80
2015,08,22,15,58,22.70
2015,08,22,15,59,22.60
2015,08,22,16,00,22.50
2015,08,22,16,01,22.50
2015,08,22,16,02,22.50
2015,08,22,16,03,22.50
2015,08,22,16,04,22.50
2015,08,22,16,05,22.40
2015,08,22,16,06,22.40
2015,08,22,16,07,22.40
2015,08,22,16,08,22.50
2015,08,22,16,09,22.50
2015,08,22,16,10,22.60
2015,08,22,16,11,22.60
2015,08,22,16,12,22.70
2015,08,22,16,13,22.60
2015,08,22,16,14,22.60
2015,08,22,16,15,22.50
2015,08,22,16,16,22.40
2015,08,22,16,17,22.40
2015,08,22,16,18,22.40
2015,08,22,16,19,22.40
2015,08,22,16,20,22.30
2015,08,22,16,21,22.30
2015,08,22,16,22,22.30
2015,08,22,16,23,22.30
2015,08,22,16,24,22.40
2015,08,22,16,25,22.40
2015,08,22,16,26,22.40
2015,08,22,16,27,22.40
2015,08,22,16,28,22.40
2015,08,22,16,29,22.30
2015,08,22,16,30,22.30
2015,08,22,16,31,22.30
2015,08,22,16,32,22.30
2015,08,22,16,33,22.20
2015,08,22,16,34,22.20
2015,08,22,16,35,22.10
2015,08,22,16,36,22.10
2015,08,22,16,37,22.10
2015,08,22,16,38,22.10
2015,08,22,16,39,22.00
2015,08,22,16,40,21.80
2015,08,22,16,41,21.70
2015,08,22,16,42,21.70
2015,08,22,16,43,21.60
2015,08,22,16,44,21.50
2015,08,22,16,45,21.30
2015,08,22,16,46,21.20
2015,08,22,16,47,21.00
2015,08,22,16,48,20.90
2015,08,22,16,49,20.80
2015,08,22,16,50,20.80
2015,08,22,16,51,20.80
2015,08,22,16,52,20.80
2015,08,22,16,53,20.90
2015,08,22,16,54,21.00
2015,08,22,16,55,21.00
2015,08,22,16,56,21.20
2015,08,22,16,57,21.30
2015,08,22,16,58,21.30
2015,08,22,16,59,21.40
2015,08,22,17,00,21.40
2015,08,22,17,01,21.40
2015,08,22,17,02,21.50
2015,08,22,17,03,21.40
2015,08,22,17,04,21.50
2015,08,22,17,05,21.60
2015,08,22,17,06,21.60
2015,08,22,17,07,21.70
2015,08,22,17,08,21.70
2015,08,22,17,09,21.70
2015,08,22,17,10,21.70
2015,08,22,17,11,21.70
2015,08,22,17,12,21.70
2015,08,22,17,13,21.80
2015,08,22,17,14,21.80
2015,08,22,17,15,21.80
2015,08,22,17,16,21.80
2015,08,22,17,17,21.70
2015,08,22,17,18,21.80
2015,08,22,17,19,21.80